This is the latest recevied weather packets stored in our database for station/object IU1DOF-3. If no packets are shown the sender has not sent any weather packets the latest 10 day(s).
| Time | Temp. | Humidity | Pressure | Rain* | Wind** | Luminosity | Snow |
|---|---|---|---|---|---|---|---|
| 1777947964 | 8.33° C | 99% | 1012.9 hPa | 7.62 mm | - | - | - |
| 1777947343 | 8.33° C | 99% | 1012.9 hPa | 5.84 mm | - | - | - |
| 1777946732 | 8.33° C | 99% | 1012.9 hPa | 6.6 mm | - | - | - |
| 1777946124 | 8.33° C | 99% | 1012.9 hPa | 2.79 mm | - | - | - |
| 1777945500 | 8.33° C | 99% | 1012.9 hPa | 1.02 mm | - | - | - |
| 1777944876 | 8.33° C | 99% | 1012.8 hPa | 1.78 mm | - | - | - |
| 1777944252 | 8.33° C | 99% | 1012.9 hPa | 2.79 mm | - | - | - |
| 1777943645 | 8.33° C | 99% | 1012.9 hPa | 5.84 mm | - | - | - |
| 1777943037 | 8.33° C | 99% | 1013.1 hPa | 4.57 mm | - | - | - |
| 1777942413 | 8.33° C | 99% | 1013.2 hPa | 2.79 mm | - | - | - |
| 1777941804 | 8.33° C | 99% | 1013.4 hPa | 2.79 mm | - | - | - |
| 1777941196 | 8.33° C | 99% | 1013.3 hPa | 1.02 mm | - | - | - |
| 1777940588 | 8.33° C | 99% | 1013.3 hPa | 1.78 mm | - | - | - |
| 1777939980 | 8.33° C | 99% | 1013.5 hPa | 1.78 mm | - | - | - |
| 1777939372 | 8.33° C | 99% | 1013.7 hPa | 0 mm | - | - | - |
| 1777938761 | 8.33° C | 99% | 1014.1 hPa | 0 mm | - | - | - |
| 1777938124 | 8.33° C | 99% | 1014.2 hPa | 1.02 mm | - | - | - |
| 1777937501 | 8.33° C | 99% | 1014.3 hPa | 0 mm | - | - | - |
| 1777936892 | 8.33° C | 99% | 1014.3 hPa | 0 mm | - | - | - |
| 1777936285 | 8.33° C | 99% | 1014.6 hPa | 0 mm | - | - | - |
| 1777935676 | 8.33° C | 99% | 1014.8 hPa | 1.78 mm | - | - | - |
| 1777935068 | 8.33° C | 99% | 1015 hPa | 0 mm | - | - | - |
| 1777934460 | 8.33° C | 99% | 1015 hPa | 1.78 mm | - | - | - |
| 1777933837 | 8.89° C | 99% | 1014.9 hPa | 2.79 mm | - | - | - |
| 1777933229 | 8.89° C | 99% | 1015.1 hPa | 1.02 mm | - | - | - |
* Rain latest hour (hover to see other rain measurements)
** Current wind speed in m/s (hover to see current wind gust speed)